Home > Weather > Port-au-Prince > Past weeks

Flag for Haiti Past Weather in Port-au-Prince, Haiti — Yesterday and Last 2 Weeks

Now
70 °F

Passing clouds.


Feels Like: 70 °F
Forecast: 72 / 92 °F
Wind: No wind

Location: Santiago

Current Time: Jun 26, 2016 at 5:15:47 AM

Latest Report: Jun 26, 2016 at 5:00 AM


Visibility: N/A

Pressure: 30.01 "Hg

Humidity: 94%

Dew Point: 68 °F

Location of Port-au-PrinceLocation

Past Weather in Port-au-Prince — Graph

°F

Port-au-Prince Temperature Yesterday

Maximum temperature yesterday: 90 °F (at 1:00 PM)
Minimum temperature yesterday: 72 °F (at 4:00 AM)
Average temperature yesterday: 79 °F

High & Low Weather Summary for the Past Weeks

 TemperatureHumidityPressure
High93 °F (Jun 11, 2:00 PM)100% (Jun 13, 5:00 AM)30.15 "Hg (Jun 13, 5:00 AM)
Low70 °F (Jun 22, 3:00 AM)39% (Jun 11, 4:00 PM)29.89 "Hg (Jun 16, 7:00 AM)
Average80 °F78%30.04 "Hg
* Reported Jun 11 4:00 AM — Jun 26 4:00 AM, Port-au-Prince, Weather by CustomWeather, © 2016

Note: Actual official high and low records may vary slightly from our data, if they occured in-between our weather recording intervals... More about our weather records

Advertising

Port-au-Prince Weather History for the Previous 24 Hours

Scroll right to see more
 ConditionsComfort  
Time TempWeatherWind HumidityBarometerVisibility
4:00 AM
Sun, Jun 26
70 °FPassing clouds.No wind94%30.01 "HgN/A
3:00 AM70 °FPassing clouds.No wind94%30.01 "HgN/A
2:00 AM70 °FPassing clouds.No wind100%30.04 "HgN/A
1:00 AM72 °FPassing clouds.No wind94%30.07 "HgN/A
12:00 AM72 °FPassing clouds.No wind88%30.07 "HgN/A
11:00 PM
Sat, Jun 25
72 °FPassing clouds.No wind94%30.09 "HgN/A
10:00 PM72 °FPassing clouds.No wind94%30.09 "HgN/A
9:00 PM72 °FMild.No wind88%30.09 "HgN/A
8:00 PM73 °FMild.No wind78%30.07 "HgN/A
7:00 PM79 °FPassing clouds.5 mph70%30.04 "HgN/A
6:00 PM84 °FScattered clouds.10 mph74%30.01 "HgN/A
5:00 PM81 °FBroken clouds.17 mph84%N/AN/A
4:00 PM86 °FLight rain. Cloudy.18 mph59%29.98 "Hg5 mi
3:00 PM90 °FScattered clouds.9 mph52%29.98 "HgN/A
2:00 PM90 °FScattered clouds.14 mph52%29.98 "HgN/A
1:00 PM90 °FScattered clouds.14 mph52%30.01 "HgN/A
12:00 PM88 °FScattered clouds.13 mph62%30.04 "HgN/A
11:00 AM86 °FScattered clouds.14 mph66%30.04 "HgN/A
10:00 AM84 °FScattered clouds.12 mph70%30.07 "HgN/A
9:00 AM82 °FScattered clouds.13 mph74%30.07 "HgN/A
8:00 AM81 °FScattered clouds.8 mph84%30.04 "HgN/A
7:00 AM73 °FScattered clouds.No wind94%30.04 "HgN/A
6:00 AM73 °FPassing clouds.No wind100%30.04 "HgN/A
5:00 AM72 °FPassing clouds.No wind100%30.01 "HgN/A
Weather by CustomWeather, © 2016

See weather overviewHow to use our weather pages